User: anonymous   Login
Location: Unspecified
(40.7945°N, 111.1337°W)
Time: 17:07:32
(UTC-06:00)
Language:

Altair - Orbit

View from above orbital plane
View from above orbital plane
View from above satellite
View from above satellite

Ground track
Ground track

The orbit data is extracted from the following two-line orbital elements,

1    50U 60009B   19170.81557381 -.00000076 +00000-0 +89063-4 0  9990
2    50 047.2285 169.8769 0114287 321.5992 037.6705 12.20109367625827
Epoch (UTC): 19 June 2019 19:34:25
Eccentricity: 0.0114287
inclination: 47.2285°
perigee height: 1501 km
apogee height: 1683 km
right ascension of ascending node: 169.8769°
argument of perigee: 321.5992°
revolutions per day: 12.20109367
mean anomaly at epoch: 37.6705°
orbit number at epoch: 62582

The dashed part of the orbit path shows where the satellite is in the earth's shadow,  

DLR